Weather Roundup
Issued by NWS Chicago, IL

Home | Current Version | Previous Version | Text Only | Print | Product List | Glossary Off
Versions: 1 2 3 4 5 6 7 8 9 10 11 12 13 14 15 16 17 18 19 20 21 22 23 24 25 26 27 28 29 30 31 32 33 34 35 36 37 38 39 40 41 42 43 44 45 46 47 48 49 50

000
NZUS59 KLOT 231612
HRRLOT

CHICAGO AREA WEATHER ROUNDUP
NATIONAL WEATHER SERVICE CHICAGO/ROMEOVILLE IL
1100 AM CDT SAT MAY 23 2015

NOTE: "FAIR" INDICATES FEW OR NO CLOUDS BELOW 12,000 FEET WITH NO
SIGNIFICANT WEATHER AND/OR OBSTRUCTIONS TO VISIBILITY.

* THESE STATIONS ARE NOT UNDER NWS QUALITY CONTROL. THEY ALSO MAY NOT
  REPORT WEATHER SUCH AS PRECIPITATION OR FOG.

ILZ005-006-012>014-019>023-231700-
NORTHEAST ILLINOIS

CITY           SKY/WX    TMP DP  RH WIND       PRES   REMARKS
OHARE          MOSUNNY   72  41  32 SE9       30.31F
MIDWAY           N/A     73  41  31 SE12      30.32F
AURORA         SUNNY     72  43  35 S12       30.32F
LANSING*       SUNNY     71  40  32 SE9       30.33F
JOLIET*        SUNNY     73  50  43 S5        30.32F
WAUKEGAN       SUNNY     67  40  37 SE10      30.32F
DUPAGE AIRPORT SUNNY     71  44  37 S13       30.31F
WHEELING       SUNNY     72  38  29 S10       30.33F
KANKAKEE*      SUNNY     73  50  43 S6        30.33F
MORRIS*        SUNNY     73  43  33 SE8       30.31S
LEWIS AIRPORT* SUNNY     71  43  36 S10       30.32F
NORTHERLY IS     N/A     61  46  57 E1          N/A
$$

WIZ051-052-058>065-066-070>072-231700-
SOUTHEAST WISCONSIN

CITY           SKY/WX    TMP DP  RH WIND       PRES   REMARKS
MILWAUKEE      MOSUNNY   72  37  28 S13       30.31F
KENOSHA*       SUNNY     73  41  31 S12       30.32F
RACINE*        SUNNY     70  36  28 S13       30.34F
BURLINGTON     SUNNY     71  38  30 SE8       30.31F
WAUKESHA       MOSUNNY   70  37  30 S8        30.33F
WEST BEND      SUNNY     72  34  25 S12       30.30F
$$

INZ001>003-010>013-019-020-231700-
NORTHWEST INDIANA

CITY           SKY/WX    TMP DP  RH WIND       PRES   REMARKS
GARY*          MOSUNNY   73  41  31 S9        30.34F
MICHIGAN CITY* NOT AVBL
RENSSELAER*    NOT AVBL
VALPARAISO     SUNNY     74  41  30 SE9       30.34F
$$

LMZ740>746-231700-
SOUTHERN LAKE MICHIGAN

STATION/POSITION TIME  SKY/WX   TEMP WIND        PRES    VSBY
                                AIR  DIR/SP/G
                 (UTC)          (F)  (DEG/KT/KT) (MB)    (MI)
HARRISON CRIB    1500            59  130/  8/  9   N/A
BURNHAM HARBOR   1600            61   CALM  /  3   N/A
CALUMET HARBOR   1500            68  150/  5/  7   N/A
BURNS HARBOR     1500            70  170/ 11/ 14 1028.1F
MICHIGAN CITY    1500            67  140/  9/ 11   N/A
$$

ABBREVIATIONS USED IN REMARKS
   TC - TEMPERATURE IN CELSIUS
  WCI - WIND CHILL INDEX
   HX - HEAT INDEX
  VSB - VISIBILITY
$$


USA.gov is the U.S. government's official web portal to all federal, state and local government web resources and services.